sat.trackr.live / text

‹ back to catalog

HYPERFIELD-1A

NORAD 60562 · 2024-149CY

PAYLOAD ACTIVE UNKNOWN

§ Identity

Operator
Country
FIN
Launch date
2024-08-16
Launch site
AFWTR
Launch vehicle
Mass (kg)
RCS (m²)

External: N2YO · Heavens-Above · Gunter

§ Orbital elements

Epoch: 2026-09-21T20:19:42.782016Z

Period
93.99 min
Inclination
97.3739°
Eccentricity
0.0004231
Mean motion
15.32025941 rev/d
Perigee alt
466.9 km
Apogee alt
472.7 km
Semi-major
6,847.9 km
B*
1.4138e-4
RAAN
344.5542°
Arg perigee
343.4596°
Mean anomaly
16.6507°
Rev number
11,683

§ Raw data

HYPERFIELD-1A1 60562U 24149CY  26264.84702294  .00004294  00000+0  14138-3 0  99932 60562  97.3739 344.5542 0004231 343.4596  16.6507 15.32025941116836

JSON: /api/v1/satellites/60562 · /tle

For live sub-satellite position, see the globe view (requires WebGL).

§ Visibility from observer

Set your observer location to see the next 7 days of passes ≥ 10°. The values pass through the URL so the page stays shareable.

No JS? Fill the form by hand. The geolocation button needs JavaScript.